Regional Weather Roundup
Issued by NWS

Home | Current Version | Previous Version | Text Only | Print | Product List | Glossary Off
Versions: 1 2 3 4 5 6 7 8 9 10 11 12 13 14 15 16 17 18 19 20 21 22 23 24 25 26 27 28 29 30 31 32 33 34 35 36 37 38 39 40 41 42 43 44 45 46 47 48 49 50

052
ASUS45 KABQ 231601
RWRNM
NEW MEXICO REGIONAL WEATHER ROUNDUP
NATIONAL WEATHER SERVICE ALBUQUERQUE NM
1000 AM MDT THU MAR 23 2017

NOTE: "FAIR" MEANS FEW OR NO CLOUDS BELOW 12,000 FEET AGL WITH NO
       SIGNIFICANT WEATHER OR OBSTRUCTIONS TO VISION.

      THIS PRODUCT IS RELEASED AS TWO VERSIONS.  ONE VERSION NEAR
      THE TOP OF THE HOUR CONTAINING PRELIMINARY DATA FROM ALBUQUERQUE
      AND OTHER STATIONS.  A FINAL VERSION WITH ADDITIONAL DATA IS
      ISSUED ABOUT 10 MINUTES AFTER THE HOUR.

NMZ501-503-504-510>518-231700-
NORTHWEST PLATEAU/NORTHCENTRAL MOUNTAINS

CITY           SKY/WX    TMP DP  RH WIND       PRES   REMARKS
FARMINGTON     FAIR      54  31  41 S13       29.80F
LOS ALAMOS     FAIR      55  18  23 SW12G25   29.88F
SANTA FE       FAIR      60  20  21 SW12      29.86F
TAOS             N/A     57  18  21 SW25      29.87F
ANGEL FIRE     FAIR      52  18  26 W21G28    29.90F

$$
NMZ402-403-502-505>509-231700-
WESTCENTRAL MOUNTAINS/SOUTHWEST MOUNTAINS

CITY           SKY/WX    TMP DP  RH WIND       PRES   REMARKS
GALLUP         CLOUDY    46  33  60 SW16      29.84F
GRANTS         FAIR      54  27  36 S13G24    29.87F
SILVER CITY    PTSUNNY   57  36  45 W16       29.92S

$$
NMZ407-409-411-412-231700-
SOUTHERN DESERTS

CITY           SKY/WX    TMP DP  RH WIND       PRES   REMARKS
DEMING         FAIR      63  36  36 W17G25    29.88F
LAS CRUCES     FAIR      67  23  18 W16       29.88S
HOLLOMAN AFB   FAIR      74  15  10 S22       29.85S
ALAMOGORDO     FAIR      73  19  13 S20G29    29.83S
T OR C         FAIR      65  25  22 S18G24    29.84F

$$
NMZ519>523-231700-
CENTRAL VALLEYS/CENTRAL HIGHLANDS

CITY           SKY/WX    TMP DP  RH WIND       PRES   REMARKS
ALBUQUERQUE    FAIR      62  20  19 S17       29.85F
DOUBLE EAGLE   SUNNY     61  27  27 SW16      29.88S
MORIARTY ARPT  FAIR      65  18  16 SW32G38   29.87F
CLINES CORNERS FAIR      60  18  19 SW30G40   29.89F
BELEN          FAIR      64  21  19 S10       29.85F
SOCORRO        FAIR      64  22  20 SE14      29.84S

$$
NMZ524>526-539-540-231700-
SOUTHCENTRAL MOUNTAINS

CITY           SKY/WX    TMP DP  RH WIND       PRES   REMARKS
RUIDOSO        NOT AVBL

$$
NMZ527>531-231700-
NORTHEAST HIGHLANDS/NORTHEAST PLAINS

CITY           SKY/WX    TMP DP  RH WIND       PRES   REMARKS
LAS VEGAS      FAIR      63  17  17 SW25G38   29.86F
RATON          FAIR      61  23  23 S14       29.81F
CLAYTON        FAIR      66  49  54 SW20G25   29.81S

$$
NMZ532>537-231700-
EASTCENTRAL PLAINS

CITY           SKY/WX    TMP DP  RH WIND       PRES   REMARKS
SANTA ROSA     FAIR      63  48  58 SE17      29.83F
TUCUMCARI      FAIR      73  50  44 S17G24    29.79F
CANNON AFB     FAIR      70  52  52 S20       29.85F
CLOVIS AIRPORT FAIR      70  52  52 S25       29.85F

$$
NMZ028-029-538-231700-
SOUTHEAST PLAINS

CITY           SKY/WX    TMP DP  RH WIND       PRES   REMARKS
ROSWELL        FAIR      68  54  60 S23       29.82F
ARTESIA        FAIR      68  57  68 SE22      29.83F
CARLSBAD       FAIR      69  56  62 SE16      29.83F
HOBBS          SUNNY     68  55  64 SE17      29.89F


$$




USA.gov is the U.S. government's official web portal to all federal, state and local government web resources and services.